Location: Gollag?dem
(16.8053°N, 80.8024°E)
Time: 18:40:51
(UTC+00:00)

SEDSat Delta rocket - Pass Details

Date: 13 August 2020
Orbit: 533 x 1000 km, 31.4° (Epoch: 19 September)

Event Time Altitude Azimuth Distance (km) Brightness Sun altitude
Exits shadow 23:20:00 20° 249° (WSW) 2,020 5.0 -14.6°
Maximum altitude 23:24:40 76° 333° (NNW) 1,011 4.1 -13.5°
Drops below altitude 10° 23:31:28 10° 58° (ENE) 2,756 7.8 -12.0°
Sets 23:34:10 0° 60° (ENE) 3,694 8.9 -11.4°
